Location: Namasale
(1.5000°N, 32.6167°E)
Time: 22:32:33
(UTC+00:00)

Vanguard 3 - Pass Details

Date: 28 April 2021
Orbit: 507 x 3262 km, 33.4° (Epoch: 16 May)

Event Time Altitude Azimuth Distance (km) Brightness Sun altitude
Rises 18:43:28 0° 256° (WSW) 7,029 12.5 -41.9°
Reaches altitude 10° 18:49:20 10° 264° (W) 5,730 12.0 -43.2°
Maximum altitude 19:03:08 33° 321° (NW) 3,180 10.3 -46.4°
Enters shadow 19:09:23 20° 8° (N) 3,267 10.2 -47.9°
